Tracking 29892 objects as of 21-Nov-2024
HD Live streaming from Space Station
objects crossing your sky now

STARLINK-2624

Track STARLINK-2624 now!
10-day predictions
STARLINK-2624 is classified as:


NORAD ID: 48358
Int'l Code: 2021-038F
Perigee: 553.4 km
Apogee: 555.2 km
Inclination: 53.1 °
Period: 95.6 minutes
Semi major axis: 6925 km
RCS: Unknown
Launch date: May 4, 2021
Source: United States (US)
Launch site: AIR FORCE EASTERN TEST RANGE (AFETR)
Your satellite tracking list
Your tracking list is empty




NASA's NSSDC Master Catalog

Two Line Element Set (TLE):
1 48358U 21038F   24325.99955895  .00008223  00000-0  57004-3 0  9991
2 48358  53.0548 328.0960 0001239 117.6665 242.4450 15.06416618196218
Source of the keplerian elements: AFSPC